Zurück zum Katalog

TIANMU-1 16

AktivWetterSSO
NORAD 58701·PAYLOAD·🇨🇳 China

Gestartet Jan 5, 2024 von Jiuquan Satellite Launch Center

Loading…

Nächste Überflüge (nächste 24 Stunden)

TLE

AktuellSource: Space-Track

Epoche: Sep 14, 2026, 23:38 UTC

1 58701U 24004B   26257.98537788  .00004743  00000-0  17871-3 0  9993
2 58701  97.4622  83.3992 0006894  45.7798 314.4006 15.27553859149488

Verfolge TIANMU-1 16 in Echtzeit mit AllMySat

Download on the App Store